Regional Weather Roundup
Issued by NWS

Home | Current Version | Previous Version | Text Only | Print | Product List | Glossary On
Versions: 1 2 3 4 5 6 7 8 9 10 11 12 13 14 15 16 17 18 19 20 21 22 23 24 25 26 27 28 29 30 31 32 33 34 35 36 37 38 39 40 41 42 43 44 45 46 47 48 49 50
000
ASUS43 KDTX 291810
RWRMI
MICHIGAN HOURLY REGIONAL WEATHER ROUNDUP
NATIONAL WEATHER SERVICE DETROIT/PONTIAC MI
200 PM EDT SAT AUG 29 2015

NOTE: "FAIR" INDICATES FEW OR NO CLOUDS BELOW 12,000 FEET WITH NO
SIGNIFICANT WEATHER AND/OR OBSTRUCTION TO VISIBILITY.

MIZ047>049-052>055-059>063-066>070-074>076-081>083-291900-
SOUTHEAST LOWER MICHIGAN

CITY           SKY/WX    TMP DP  RH WIND       PRES   REMARKS
ADRIAN         CLOUDY    76  63  64 S5        30.09F
6HR MIN TEMP:  61; 6HR MAX TEMP:  78; 6HR PCP: TRACE;

ALMA           CLOUDY    66  64  94 SE5       30.11F
ANN ARBOR      CLOUDY    73  65  75 SE3       30.09F
BAD AXE        RAIN      65  62  89 CALM      30.15S
CARO           LGT RAIN  68  65  92 CALM      30.12F
DETROIT CITY   CLOUDY    73  64  73 E6        30.10F
6HR MIN TEMP:  65; 6HR MAX TEMP:  76;

DETROIT        CLOUDY    76  60  57 S5        30.10F
6HR MIN TEMP:  65; 6HR MAX TEMP:  78;

FLINT          CLOUDY    71  64  78 CALM      30.12S
6HR MIN TEMP:  65; 6HR MAX TEMP:  72; 6HR PCP:  0.01;

GROSSE ILE     PTSUNNY   75  66  73 S9        30.09S
HILLSDALE      CLOUDY    72  67  83 CALM      30.09F
6HR MIN TEMP:  63; 6HR MAX TEMP:  73;

HOWELL         CLOUDY    68  65  89 CALM      30.12F
6HR MIN TEMP:  61; 6HR MAX TEMP:  69;


CITY           SKY/WX    TMP DP  RH WIND       PRES   REMARKS
JACKSON        CLOUDY    69  65  86 NE5       30.10F
6HR MIN TEMP:  63; 6HR MAX TEMP:  69; 6HR PCP:  0.07;

LAMBERTVILLE   PTSUNNY   79  61  53 S3        30.10S
6HR MIN TEMP:  61; 6HR MAX TEMP:  81;

LANSING        CLOUDY    68  63  84 SE5       30.11F
6HR MIN TEMP:  62; 6HR MAX TEMP:  68; 6HR PCP:  0.07;

LAPEER         RAIN      69  65  88 CALM      30.13S
6HR MIN TEMP:  60; 6HR MAX TEMP:  69; 6HR PCP:  0.01;

MASON          CLOUDY    67  62  85 CALM      30.10F
MONROE         PTSUNNY   76  61  60 SE6       30.09F
6HR MIN TEMP:  61; 6HR MAX TEMP:  77;

MT. CLEMENS    CLOUDY    72  63  74 SE6       30.10F HAZE
6HR MIN TEMP:  63; 6HR MAX TEMP:  72;

PONTIAC        LGT RAIN  70  64  81 CALM      30.12S
6HR MIN TEMP:  63; 6HR MAX TEMP:  71; 6HR PCP:  0.02;

PORT HOPE        N/A     66  60  81 SE7       30.13S
6HR MIN TEMP:  63; 6HR MAX TEMP:  66;

PORT HURON     CLOUDY    72  64  78 SE3       30.11S
TRI CITIES     CLOUDY    67  63  87 SE5       30.12F
6HR MIN TEMP:  63; 6HR MAX TEMP:  67; 6HR PCP:  0.06;

MIDLAND        CLOUDY    68  62  83 S6        30.11S
TROY           CLOUDY    74  65  75 NE6       30.13S
SAGINAW HB     CLOUDY    66  64  94 SE6       30.11F
$$
MIZ043>046-050>051-056>058-064>065-071>073-077>080-291900-
SOUTHWEST LOWER MICHIGAN

CITY           SKY/WX    TMP DP  RH WIND       PRES   REMARKS
BATTLE CREEK   CLOUDY    68  64  87 E3        30.10S
6HR MIN TEMP:  64; 6HR MAX TEMP:  68; 6HR PCP:  0.18;

BENTON HARBOR    N/A     66  63  90 E7        30.04S FOG
6HR MIN TEMP:  62; 6HR MAX TEMP:  66; 6HR PCP:  0.46;

BIG RAPIDS     CLOUDY    64  62  93 SE3       30.11R
6HR MIN TEMP:  59; 6HR MAX TEMP:  64; 6HR PCP:  0.01;

COLDWATER      CLOUDY    72  65  78 E3        30.08F
6HR MIN TEMP:  63; 6HR MAX TEMP:  72;

FREMONT        CLOUDY    65  64  96 E5        30.08F
HOLLAND        LGT RAIN  67  63  87 E3        30.08S
6HR MIN TEMP:  63; 6HR MAX TEMP:  67; 6HR PCP:  0.09;

GRAND RAPIDS   CLOUDY    67  63  87 E5        30.09F
6HR MIN TEMP:  62; 6HR MAX TEMP:  67; 6HR PCP:  0.16;

IONIA          PTSUNNY   69  63  80 E3        30.09F
6HR MIN TEMP:  61; 6HR MAX TEMP:  69; 6HR PCP:  0.11;

KALAMAZOO      LGT RAIN  68  63  84 E6        30.08F
6HR MIN TEMP:  63; 6HR MAX TEMP:  68; 6HR PCP:  0.24;

LUDINGTON      CLOUDY    69  64  84 SE3       30.08F
6HR MIN TEMP:  61; 6HR MAX TEMP:  71; 6HR PCP:  0.01;

MARSHALL       CLOUDY    67  63  87 CALM      30.09F
6HR MIN TEMP:  61; 6HR MAX TEMP:  67;

MOUNT PLEASANT MIX PCPN  67  63  86 E3        30.10F
6HR MIN TEMP:  62; 6HR MAX TEMP:  68; 6HR PCP:  0.01;

MUSKEGON       CLOUDY    67  62  84 E5        30.08S
6HR MIN TEMP:  61; 6HR MAX TEMP:  67; 6HR PCP:  0.13;

SOUTH HAVEN    CLOUDY    65  62  91 E6        30.05F
$$
MIZ016>042-291900-
NORTHERN LOWER MICHIGAN

CITY           SKY/WX    TMP DP  RH WIND       PRES   REMARKS
ALPENA         CLOUDY    66  59  78 S6        30.11F
6HR MIN TEMP:  62; 6HR MAX TEMP:  70; 6HR PCP:  0.04;

BEAVER ISLAND  CLOUDY    69  61  76 SW9G17    30.08F
6HR MIN TEMP:  63; 6HR MAX TEMP:  69;

BELLAIRE       PTSUNNY   69  61  75 S5        30.09S
6HR MIN TEMP:  61; 6HR MAX TEMP:  69;

CADILLAC       CLOUDY    66  61  82 SE5       30.10F
CHARLEVOIX     CLOUDY    68  61  77 SW5       30.12S
6HR MIN TEMP:  61; 6HR MAX TEMP:  69;

FRANKFORT      MOSUNNY   72  63  72 SW6       30.08S
GAYLORD        CLOUDY    69  61  75 S10       30.11F
6HR MIN TEMP:  60; 6HR MAX TEMP:  70; 6HR PCP:  0.02;

GRAYLING       CLOUDY    68  60  75 S3        30.13S
6HR MIN TEMP:  56; 6HR MAX TEMP:  68;

HARBOR SPRINGS CLOUDY    67  61  81 W3        30.10S
HOUGHTON LAKE  CLOUDY    66  60  81 S5        30.13F
6HR MIN TEMP:  56; 6HR MAX TEMP:  66; 6HR PCP:  0.01;

MANISTEE       CLOUDY    70  57  64 S7        30.09S
OSCODA         CLOUDY    65  58  77 SE3       30.13S
6HR MIN TEMP:  61; 6HR MAX TEMP:  66;

PELLSTON       CLOUDY    69  59  70 W8        30.09F
6HR MIN TEMP:  62; 6HR MAX TEMP:  70;

ROGERS CITY    CLOUDY    69  62  79 SW6       30.10F
TRAVERSE CITY  CLOUDY    71  62  73 VRB5      30.08F
6HR MIN TEMP:  62; 6HR MAX TEMP:  71; 6HR PCP:  0.02;

$$
MIZ007>008-015-291900-
EASTERN UPPER MICHIGAN

CITY           SKY/WX    TMP DP  RH WIND       PRES   REMARKS
KINROSS        CLOUDY    66  63  88 W8        30.07F
6HR MIN TEMP:  63; 6HR MAX TEMP:  66;

MACKINAC ISLAN CLOUDY    67  60  76 SW7       30.08F
NEWBERRY       CLOUDY    71  60  67 S12       30.05F
6HR MIN TEMP:  61; 6HR MAX TEMP:  73;

S. S. MARIE    CLOUDY    69  61  75 W7        30.06S
6HR MIN TEMP:  63; 6HR MAX TEMP:  69; 6HR PCP:  0.01;

MUNISING         N/A     78  60  53 VRB5      30.02F
6HR MIN TEMP:  64; 6HR MAX TEMP:  79;

$$
MIZ004>006-011>014-085-291900-
CENTRAL UPPER MICHIGAN

CITY           SKY/WX    TMP DP  RH WIND       PRES   REMARKS
MANISTIQUE     PTSUNNY   69  62  76 S10       30.06S
6HR MIN TEMP:  60; 6HR MAX TEMP:  71;

ESCANABA       MOSUNNY   66  61  82 S14       30.05F
6HR MIN TEMP:  57; 6HR MAX TEMP:  66;

MENOMINEE      CLOUDY    66  57  72 S6        30.07S
6HR MIN TEMP:  57; 6HR MAX TEMP:  66;

SAWYER-GWINN   SUNNY     73  57  56 SW7       30.05F
$$
MIZ001>003-009>011-084-291900-
WESTERN UPPER MICHIGAN

CITY           SKY/WX    TMP DP  RH WIND       PRES   REMARKS
IRON MOUNTAIN  PTSUNNY   74  59  59 S9        30.05F
6HR MIN TEMP:  61; 6HR MAX TEMP:  74;

HOUGHTON       CLOUDY    70  56  61 W16       30.02S
6HR MIN TEMP:  60; 6HR MAX TEMP:  70;

COPPER HARBOR    N/A     70  60  70 N15       29.99F
6HR MIN TEMP:  63; 6HR MAX TEMP:  74;

IRONWOOD       PTSUNNY   73  59  60 SW5       30.01F
6HR MIN TEMP:  57; 6HR MAX TEMP:  73;

$$

ABBREVIATIONS USED IN REMARKS
   TC - TEMPERATURE IN CELSIUS
  WCI - WIND CHILL INDEX
   HX - HEAT INDEX
  VSB - VISIBILITY



USA.gov is the U.S. government's official web portal to all federal, state and local government web resources and services.